• In Czech Republic
  • List of Countries
  • For 7 days
  • Water Temperature
  • Satellite Maps
  • Weather Map
  • Weather Widgets
  • user-avatar
    Login

    Hourly Weather Baraki Barak

    Today, 20 May, Sunday

    Time Temperature Precipitation Wind Pressure Humidity
    00:00 +12°C° 0 mm 3 mps 597 mmHg 45%
    01:00 +11°C° 0 mm 3 mps 597 mmHg 47%
    02:00 +12°C° 0 mm 2 mps 596 mmHg 49%
    03:00 +10°C° 0 mm 2 mps 596 mmHg 50%
    04:00 +10°C° 0 mm 2 mps 596 mmHg 51%
    05:00 +11°C° 0 mm 1 mps 596 mmHg 54%
    06:00 +11°C° 0 mm 1 mps 596 mmHg 51%
    07:00 +12°C° 0 mm 2 mps 597 mmHg 48%
    08:00 +13°C° 0 mm 2 mps 597 mmHg 45%
    09:00 +14°C° 0 mm 2 mps 598 mmHg 41%
    10:00 +15°C° 0 mm 2 mps 598 mmHg 38%
    11:00 +16°C° 0 mm 2 mps 599 mmHg 33%
    12:00 +17°C° 0.2 mm 2 mps 599 mmHg 30%
    13:00 +18°C° 0.2 mm 3 mps 599 mmHg 28%
    14:00 +19°C° 0.2 mm 4 mps 599 mmHg 25%
    15:00 +19°C° 0.2 mm 4 mps 599 mmHg 25%
    16:00 +19°C° 0.2 mm 4 mps 599 mmHg 26%
    17:00 +19°C° 0.2 mm 4 mps 599 mmHg 26%
    18:00 +18°C° 0.4 mm 4 mps 599 mmHg 30%
    19:00 +17°C° 0.4 mm 4 mps 598 mmHg 34%
    20:00 +15°C° 0.4 mm 4 mps 598 mmHg 38%
    21:00 +14°C° 0.1 mm 4 mps 598 mmHg 40%
    22:00 +13°C° 0.1 mm 4 mps 598 mmHg 41%
    23:00 +13°C° 0.1 mm 3 mps 598 mmHg 43%

    Tomorrow, 21 May, Monday

    Time Temperature Precipitation Wind Pressure Humidity
    00:00 +12°C° 0 mm 3 mps 598 mmHg 43%
    01:00 +12°C° 0 mm 3 mps 598 mmHg 43%
    02:00 +12°C° 0 mm 2 mps 597 mmHg 43%
    03:00 +12°C° 0 mm 2 mps 597 mmHg 43%
    04:00 +10°C° 0 mm 2 mps 597 mmHg 43%
    05:00 +10°C° 0 mm 2 mps 597 mmHg 43%
    06:00 +12°C° 0 mm 2 mps 597 mmHg 42%
    07:00 +13°C° 0 mm 2 mps 598 mmHg 40%
    08:00 +14°C° 0 mm 2 mps 599 mmHg 38%
    09:00 +15°C° 0.1 mm 2 mps 599 mmHg 36%
    10:00 +16°C° 0.1 mm 2 mps 599 mmHg 33%
    11:00 +17°C° 0.1 mm 2 mps 600 mmHg 30%
    12:00 +18°C° 0.2 mm 2 mps 600 mmHg 27%
    13:00 +19°C° 0.2 mm 3 mps 600 mmHg 25%
    14:00 +20°C° 0.2 mm 3 mps 600 mmHg 22%
    15:00 +20°C° 0.3 mm 4 mps 600 mmHg 22%
    16:00 +20°C° 0.3 mm 4 mps 600 mmHg 22%
    17:00 +21°C° 0.3 mm 4 mps 599 mmHg 22%
    18:00 +19°C° 0.2 mm 4 mps 599 mmHg 25%
    19:00 +18°C° 0.2 mm 4 mps 599 mmHg 29%
    20:00 +17°C° 0.2 mm 4 mps 599 mmHg 33%
    21:00 +15°C° 0.1 mm 4 mps 599 mmHg 35%
    22:00 +14°C° 0.1 mm 3 mps 599 mmHg 37%
    23:00 +14°C° 0.1 mm 3 mps 599 mmHg 39%

    Day after tomorrow, 22 May, Tuesday

    Time Temperature Precipitation Wind Pressure Humidity
    00:00 +13°C° 0.1 mm 3 mps 598 mmHg 38%
    01:00 +13°C° 0.1 mm 3 mps 598 mmHg 38%
    02:00 +13°C° 0.1 mm 2 mps 598 mmHg 38%
    03:00 +13°C° 0 mm 2 mps 597 mmHg 38%
    04:00 +12°C° 0 mm 2 mps 597 mmHg 37%
    05:00 +12°C° 0 mm 2 mps 597 mmHg 37%
    06:00 +13°C° 0 mm 2 mps 597 mmHg 34%
    07:00 +14°C° 0 mm 2 mps 598 mmHg 30%
    08:00 +15°C° 0 mm 2 mps 599 mmHg 26%
    09:00 +16°C° 0 mm 2 mps 599 mmHg 25%
    10:00 +17°C° 0 mm 2 mps 600 mmHg 23%
    11:00 +19°C° 0 mm 2 mps 600 mmHg 22%
    12:00 +20°C° 0 mm 1 mps 600 mmHg 20%
    13:00 +21°C° 0 mm 1 mps 600 mmHg 18%
    14:00 +22°C° 0 mm 1 mps 600 mmHg 17%
    15:00 +23°C° 0 mm 2 mps 600 mmHg 16%
    16:00 +23°C° 0 mm 2 mps 600 mmHg 16%
    17:00 +23°C° 0 mm 2 mps 599 mmHg 15%
    18:00 +21°C° 0 mm 2 mps 599 mmHg 18%
    19:00 +20°C° 0 mm 3 mps 599 mmHg 21%
    20:00 +19°C° 0 mm 3 mps 599 mmHg 23%
    21:00 +18°C° 0 mm 3 mps 599 mmHg 25%
    22:00 +18°C° 0 mm 2 mps 599 mmHg 27%
    23:00 +17°C° 0 mm 2 mps 599 mmHg 28%

    23 May, Wednesday

    Time Temperature Precipitation Wind Pressure Humidity
    00:00 +16°C° 0 mm 2 mps 599 mmHg 30%
    01:00 +15°C° 0 mm 2 mps 598 mmHg 31%
    02:00 +15°C° 0 mm 2 mps 598 mmHg 32%
    03:00 +14°C° 0 mm 2 mps 597 mmHg 33%
    04:00 +14°C° 0 mm 2 mps 597 mmHg 35%
    05:00 +13°C° 0 mm 2 mps 597 mmHg 36%
    06:00 +14°C° 0 mm 2 mps 598 mmHg 33%
    07:00 +15°C° 0 mm 2 mps 598 mmHg 30%
    08:00 +17°C° 0 mm 2 mps 599 mmHg 27%
    09:00 +18°C° 0 mm 2 mps 599 mmHg 25%
    10:00 +19°C° 0 mm 2 mps 600 mmHg 22%
    11:00 +21°C° 0 mm 1 mps 600 mmHg 20%
    12:00 +22°C° 0 mm 1 mps 600 mmHg 19%
    13:00 +23°C° 0 mm 1 mps 600 mmHg 17%
    14:00 +24°C° 0 mm 1 mps 600 mmHg 16%
    15:00 +24°C° 0 mm 2 mps 599 mmHg 16%
    16:00 +24°C° 0 mm 2 mps 599 mmHg 16%
    17:00 +24°C° 0 mm 2 mps 599 mmHg 16%
    18:00 +22°C° 0 mm 3 mps 599 mmHg 20%
    19:00 +21°C° 0 mm 3 mps 599 mmHg 23%
    20:00 +20°C° 0 mm 3 mps 599 mmHg 26%
    21:00 +20°C° 0 mm 3 mps 599 mmHg 29%
    22:00 +19°C° 0 mm 3 mps 599 mmHg 31%
    23:00 +18°C° 0 mm 3 mps 599 mmHg 34%

    24 May, Thursday

    Time Temperature Precipitation Wind Pressure Humidity
    00:00 +17°C° 0 mm 3 mps 598 mmHg 37%
    01:00 +17°C° 0 mm 2 mps 598 mmHg 40%
    02:00 +16°C° 0 mm 2 mps 597 mmHg 43%
    03:00 +15°C° 0 mm 2 mps 597 mmHg 44%
    04:00 +15°C° 0 mm 2 mps 597 mmHg 46%
    05:00 +14°C° 0 mm 2 mps 596 mmHg 48%
    06:00 +15°C° 0 mm 2 mps 597 mmHg 43%
    07:00 +17°C° 0 mm 2 mps 598 mmHg 39%
    08:00 +19°C° 0 mm 1 mps 598 mmHg 34%
    09:00 +20°C° 0 mm 1 mps 599 mmHg 30%
    10:00 +21°C° 0 mm 1 mps 599 mmHg 27%
    11:00 +22°C° 0 mm 1 mps 600 mmHg 23%
    12:00 +23°C° 0 mm 1 mps 600 mmHg 21%
    13:00 +24°C° 0 mm 1 mps 600 mmHg 19%
    14:00 +25°C° 0 mm 1 mps 600 mmHg 16%
    15:00 +26°C° 0 mm 2 mps 600 mmHg 16%
    16:00 +26°C° 0 mm 2 mps 599 mmHg 15%
    17:00 +26°C° 0 mm 2 mps 599 mmHg 15%
    18:00 +25°C° 0 mm 2 mps 599 mmHg 18%
    19:00 +24°C° 0 mm 2 mps 599 mmHg 21%
    20:00 +23°C° 0 mm 2 mps 599 mmHg 24%
    21:00 +21°C° 0 mm 2 mps 599 mmHg 26%
    22:00 +20°C° 0 mm 2 mps 599 mmHg 28%
    23:00 +20°C° 0 mm 2 mps 599 mmHg 30%

    25 May, Friday

    Time Temperature Precipitation Wind Pressure Humidity
    00:00 +20°C° 0 mm 1 mps 598 mmHg 32%
    01:00 +19°C° 0 mm 1 mps 598 mmHg 33%
    02:00 +18°C° 0 mm 1 mps 597 mmHg 35%
    03:00 +18°C° 0 mm 1 mps 597 mmHg 36%
    04:00 +16°C° 0 mm 1 mps 597 mmHg 37%
    05:00 +16°C° 0 mm 1 mps 597 mmHg 38%
    06:00 +18°C° 0 mm 1 mps 597 mmHg 33%
    07:00 +19°C° 0 mm 1 mps 598 mmHg 29%
    08:00 +21°C° 0 mm 1 mps 599 mmHg 25%
    09:00 +22°C° 0 mm 1 mps 599 mmHg 22%
    10:00 +23°C° 0 mm 1 mps 600 mmHg 20%
    11:00 +24°C° 0 mm 1 mps 600 mmHg 18%
    12:00 +25°C° 0 mm 1 mps 600 mmHg 17%
    13:00 +26°C° 0 mm 2 mps 600 mmHg 16%
    14:00 +27°C° 0 mm 2 mps 600 mmHg 15%
    15:00 +27°C° 0 mm 2 mps 600 mmHg 15%
    16:00 +27°C° 0 mm 3 mps 600 mmHg 16%
    17:00 +27°C° 0 mm 3 mps 599 mmHg 16%
    18:00 +26°C° 0 mm 2 mps 599 mmHg 19%
    19:00 +25°C° 0 mm 2 mps 599 mmHg 22%
    20:00 +24°C° 0 mm 2 mps 599 mmHg 26%
    21:00 +24°C° 0 mm 2 mps 599 mmHg 28%
    22:00 +23°C° 0 mm 2 mps 599 mmHg 31%
    23:00 +21°C° 0 mm 2 mps 599 mmHg 34%
    Show more